PositionNumNom Prénom NomPrénomCat.Tempsmoyenne(min/km)
1337GrellFrançoisKestelynBaptisteS H1:02:320:04:10
2444VicoVictorRasschaertEddyS H01:05:120:04:21
3396BernierDonatienColmand midolSebastienV H01:05:510:04:23
4420SamynGeoffreyIstaceJoséV M01:08:080:04:33
5417FrevilleGeoffreyPonthieuNicolasS H1:09:190:04:37
6432BaraPaulDecaluweKellyS Mx1:10:040:04:40
7421VerrueSebastienBilletGregoryS H1:10:220:04:41
8405VANCOPPENOLLEERICVAN ESSCHEDamienS M1:11:540:04:48
9408RisselinMathieuGrellRaphaelS H01:12:580:04:52
10395DupretDidierDuvivierDanyV H01:14:210:04:57
11439AllaertFrancoisChoteauludovicS H 01:17:140:05:09
12387BreyneArmandValkePeterJanS H01:17:320:05:10
13435DelplaceJean-Noel TesseSeastienV H01:17:550:05:12
14332CarpentierJulienDesmonsRichardS H01:19:120:05:17
154460000001:19:230:05:18
16301MulliezRémyFlammiaFrançoisS H01:19:280:05:18
17305BonnierMathieuClercxVincentV H01:20:280:05:22
18423DaulieLouisBaesFlorentS H01:21:030:05:24
19357DesterbecqJimmyBrilleChristopherS H01:21:500:05:27
20404legastfrançoislesnebenoîtV H01:22:030:05:28
21440DevenysBenjaminDevenys StephaneS H01:22:060:05:28
22309PhilippartDavidPhilippartDamienV H01:22:350:05:30
23438RoomsFrederikD'hoedtMattijsS H01:24:580:05:40
24356HumezDaisyHumezSébastienS H01:25:420:05:43
25388capellecoralinemertenspascalV Mx01:26:250:05:46
26369bertonjean-marcbertonaxelV H01:26:470:05:47
27449DelezDonatienNeckebroeckJarichS H01:27:000:05:48
28341VanderstrichelenLaurentGilletDavidS H01:27:460:05:51
29381DelmerGillianLiétardAntoineS H01:27:560:05:52
30409PutmanSteveDeconinckJérômeS H01:28:000:05:52
31338VanhoutteGeoffreyLepoutreVincentSH01:28:060:05:52
32425Kargar SamaniKhalilLecocq PierreV H 01:28:330:05:54
33398MahiezDavidChuffartChristopheV H01:28:540:05:56
34399CollieFabiandelportetonyV H01:29:450:05:59
35392GRIVETDOMINIQUEBILLIETFABRICEV H01:30:160:06:01
36410DuquenneMichelLauwersChristopheV H01:30:200:06:01
37344LacroixClémentLacroixMarieS Mx01:30:250:06:02
38412De BruyckerDanielDe BruyckerCecileV Mx01:32:520:06:11
39391SAUDEMONTFREDERICBOULANGERJULIENV H01:33:200:06:13
40355DelcourtFlorenceDelcourtHuguesV H01:33:420:06:15
41450Lambert PatrickCottonJeremieV H01:34:220:06:17
42453Morchon PabloFrutosNicolasS M01:34:300:06:18
43336FrédéricTiphèneCochezMargotS F01:34:400:06:19
44326Van NesteMichelDuboisManuS H01:35:080:06:21
45339MorlighemGregVieira RamosAlexV H01:36:010:06:24
46454BoutryVincentCollageJulieS Mx01:36:040:06:24
47362CouroyerNathanFagelotWilliamS H01:36:150:06:25
48333Van DurmenPhilippeDenisGregoryV H01:36:200:06:25
49331LetellierAlexisDewaeleFlorenceS Mx01:36:320:06:26
50353De MoorFrédéricCasteelsKevinS H01:36:350:06:26
51354DelporteManuelLefevrePierreS H01:36:470:06:27
52334BonnetFlorentBaudensRémyS H01:37:400:06:31
53310CloetJean ChristopheMaertensGuillaumeS H01:37:580:06:32
54443QuintinPierreQuintinTomS H01:38:350:06:34
55348BarbierHélèneLefebvreNoémieS F01:39:050:06:36
56419TanghePascalTangheFlorinneS Mx01:39:120:06:37
57437DelplaceVivianGrellGeorgV H01:39:200:06:37
58323MontegniesBenoitMontegniesJean-JacquesV H01:39:420:06:39
59400DesmyterLaurenceWindalMagaliS F01:39:480:06:39
60321DenilBernardThaonStéphanieV Mx01:39:560:06:40
61316DebraineFrançoisVangenebergChristopheS H01:40:100:06:41
62405VANCOPPENOLLEERICVAN ESSCHEDamienS M01:40:100:06:41
63365RamuAnnickMasaiChristianV Mx01:40:300:06:42
64312ClémentGeorgesDe BeckerIsabelleS Mx01:41:240:06:46
65382MalfaitIngridFontaineLucV Mx01:41:400:06:47
66358VanaerdeCharlotteArysMarieS F01:42:180:06:49
67359HarzéMaximeMoutierNicolasS H01:42:320:06:50
68318ChristiaensCindyPestiauxClémentineS F01:42:500:06:51
69376DuthoitMylèneVandaeleJulieS F01:42:580:06:52
70445DeramaixJean-MarieDeramaixKevinV H01:43:020:06:52
71385TRENEULPierreLAFONTGuillaumeS H01:43:100:06:53
724540000001:43:150:06:53
73308DelbartEmilieDumoulinMarie-LaureS F01:43:250:06:54
74366CoupezPhilippeDesodtJean-DanielV H01:43:300:06:54
75352RyckeboschLudwigMalraitGerryV H01:43:490:06:55
76442DruartIsabelleRaviartSophieV F01:43:530:06:56
77352RyckeboschLudwigMalraitGerryV H01:44:150:06:57
78364DesleeEricSenellePaul-ValeryV H01:44:300:06:58
79379Van DierdonckNiekBlockeelVincentV Mx01:44:440:06:59
80380DupireQuentinDuwelzMichaelS H01:45:080:07:01
81363DeroissartPhilippeCossementCarolineV Mx01:45:150:07:01
82304DufourMathieuReheulAudreyS Mx01:45:520:07:03
83325MartinageFrançoisCornetMarcV H01:46:000:07:04
84431LignierCandideStragierRudyV Mx01:46:120:07:05
85451VANCOPPENOLLE0VAN ESSCHE0S F01:46:220:07:05
86306DelobelEmmanuelleJouretJulienS Mx01:46:470:07:07
87393FlémalBlancheMoutteauPhilippeV Mx01:46:580:07:08
88303VoiturierLaurentCampenerJulienS H01:47:020:07:08
89378EvrardCandiceBruninLydieS F01:47:180:07:09
90319FroidureNadineLouetteFrédéricS Mx01:47:250:07:10
91320CampenerFrédéricVoiturierVirginieV Mx01:47:360:07:10
92436Thiebaut CindyVinchent SylvieV F01:48:460:07:15
93428Vanderhaeghen FabienD'hulsterJean-PierreV H01:49:120:07:17
94328HeyseJjSainlezSimonV H01:49:250:07:18
95415SzulcCélineBeghinFlorentS Mx01:49:320:07:18
96361ZaouiaSaïdSadinGillesS H01:50:000:07:20
97447FredericJean-MarieFredericJean-PierreV H01:50:240:07:22
98441CallensJean-GonzagueLeclercqPhilippeV H01:50:390:07:23
99383LefebvreChristineVillersVincentS Mx01:51:120:07:25
100394LECLERCQSIBYLLELECLERCQEDDYV Mx01:51:300:07:26
101347DaelsSébastienRasseneurMélanieS Mx01:51:420:07:27
102322HempteSylvieVansteebruggedominiqueV F01:52:420:07:31
103335NeveFredericCambierAnne-SophieV Mx01:52:520:07:31
104433VandevyvreVeroniqueDoulletRonaldV Mx01:53:000:07:32
105345MartinGermainMartinJulieS Mx01:53:250:07:34
106324Brunclair MarieEvrardFrédéricS Mx01:53:450:07:35
107384Van nieuwenhuyzeEricFatrezMarieV Mx01:54:000:07:36
108302SainlezChristopheHeyseLaetitiaV Mx01:54:150:07:37
109340WallemacqThierryCazierIsabelleV H01:54:540:07:40
110351DelporteDiegoCammarataAdrienS H01:54:580:07:40
111330SylvartTamaraLemaireBeb ElleS F01:55:180:07:41
112343LoridanMélodyScolasBénédicteS F01:55:440:07:43
113374De nardiNicolasDarasSoniaS Mx01:55:520:07:43
114430DevoghelLaurentRyckebuschChristopheV H01:56:210:07:45
115311D'HaufaytEliseDevuystCapucineS F01:56:350:07:46
116314DekosterPaulineD'odoricoMaurineS F01:56:480:07:47
117401FLAMENTEglantineBOUCNIAUXAnneV F01:56:560:07:48
118375CarpreauVirginieWaelesAnne sophieV F01:56:570:07:48
119397LequenneLaetitiaGaillezVirginieV F01:57:120:07:49
120426JurquinChristianVan CeunebroeckMichelV H01:57:220:07:49
121427MagnierSophieMarelbergeCarineV F01:57:240:07:50
122367AudoorAlainCousseChristopheV H01:57:520:07:51
123315SecqLaurianeHonoréGladysS F01:58:520:07:55
124307LadrièreGwenaëlleLouisCaroleS F02:00:200:08:01
125371MiclotteVincentMiclotteMathildeS Mx02:00:340:08:02
126407MazurelleCarolineTherinVirginieS F02:01:020:08:04
127403DutrieuxAnne-SophieVermeulenDamienS Mx02:01:090:08:05
128360SadinJérômeGarzittoMarieS Mx02:01:280:08:06
129413lamarqueclaudielamarquechristianV Mx02:01:380:08:07
130300BoiteauxElodieSegersSophieS F02:01:550:08:08
131317BequetYannickVercaigneMartineV Mx02:02:560:08:12
132411BenitAlineCampenerFrançoisS Mx02:03:200:08:13
133448DeravetGuillaumeOuechenLeilaS Mx02:05:070:08:20
134370VandenbulckeHélèneVandenbulckeIsabelleS F02:06:420:08:27
135373CalonneAnne-SophieJustePascalineV F02:06:460:08:27
136452PlateauVeroniqueDufourLineV F02:06:540:08:28
137418Fontaine ChristelleGrulois JosephV Mx02:07:340:08:30
138372TASSOUdelphinepouillynathalieV F02:07:480:08:31
139313CasierArianeMortaignieLaureV F02:08:580:08:36
140424MasseAntoineSessoyeAudreyS Mx02:10:100:08:41
141350BenardMariePicronOlivierV Mx02:11:020:08:44
142327LesoilHarmonyDugauquierCatherineS F02:12:120:08:49
143368FloersSandraVilletteMarieV F02:15:400:09:03
144406claeysmaryselevequesophieV F02:18:420:09:15
145402RemmerieDelphineDescampsCarolineV F02:18:440:09:15
146389DELVALLEELUDOVICRIVIEREFREDERICV H02:50:410:11:23